OBJECT BF, 60521

Orbit data source: Space-Track

You're viewing an Uncataloged Satellite

Recently launched and/or uncataloged satellites may have evolving metadata. Metadata may include but not limited to: Owner, Maufacturer, Bus, Motor, and Mission.

OBJECT BF, 60521 is a satellite in SSO that was launched on Fri, 16 Aug 2024 UTC via an FALCON 9 launch vehicle from the Air Force Western Test Range (AFWTR). Unknown objects in Earth's orbit typically refer to objects detected orbiting the Earth but have not yet been identified or cataloged. These objects could be anything from previously untracked satellites, spent rocket stages, debris from satellite collisions, or even natural meteoroids temporarily captured by Earth's gravity.

Loading next visibility...
Identifier
60521, 2024-149BF
Orbit
SSO
Country
Flag of TBDTBD
Related business
Flag of SESwedish Defence Research Agency (SE)
Manufacturer
FOI
Mission
Operational Defense Communications
Bus & Motor
CUBESAT 3U, Unknown motor
Mass
4 kg wet, 4 kg dry
Launch date (UTC)
2024-08-16 (1 year ago)
Launch vehicle
FALCON 9
Launch site
Air Force Western Test Range (AFWTR)
Object type
Unknown
Shape & HBR
Box, 0.1 m
Radar Cross Section
0.035 m², Medium (>0.1 m² and < 1m²)

Expand to show TLE details & history
Last TLE update: 13 hours ago

TLE from 13 hours ago
0 OBJECT BF
1 60521U 24149BF  25303.69420543  .00048721  00000-0  10518-2 0  9999
2 60521  97.4004  25.5208 0004086  32.9626 327.1877 15.44380730 67315
Epoch: 2025-10-30T16:39Z
TLE epoch observation values (Epoch: 2025-10-30T16:39:39.349Z)
Latitude
0.00006°
Longitude
96.35752°
Altitude
433.982 km
Speed
7.653 km/s
True Right ascension
01h 42m 04s
True Declination
0° 00' 00"
Sunlit
Object was in full shadow at epoch
Visualization orbit readout
Latitude
Unknown
Longitude
Unknown
Altitude
Unknown
Speed
Unknown
Apparent Right ascension
Unknown
Apparent Declination
Unknown
Sunlit
N/A
Visualization observer readout
Local Sidereal Time
01:30:00
Azimuth
Unknown
Elevation
Unknown
Doppler factor
Unknown
Orbital elements
Apogee altitude
432.913 km
Perigee altitude
427.35 km
Semi-major axis
6,808.268 km
Eccentricity
0.00041
Inclination
97.4004°
RAAN
25.5208°
Arg. of periapsis
32.9626°
True anomaly
327.16232°
Mean anomaly
327.1877°
Eccentric anomaly
327.17501°
Mean motion
3.86356 °/min
Orbital period
93.18 mins
BSTAR
0.0010518
Loading maneuver chart data...
Computing Atmospheric mass density...
Loading historical data...
Loading historical data...
Loading historical data...
Loading historical data...
Loading historical data...
Loading historical data...
Loading historical data...

Documentation

Showing up to 5 results
|